When you browse on this site, cookies collect data to enhance your experience and personalize the content and advertising you see.
Visit our Privacy Policy to learn more. By continuing to use the site, you agree to this use of cookies and data.
  • In Portugal
  • List of Countries
  • For 7 days
  • Water Temperature
  • Weather Map
  • Weather Widgets
  • user-avatar
    Login

    Hourly Weather Ganja

    Today, 23 August, Friday

    Time Temperature Precipitation Wind Pressure Humidity
    00:00 +26°C° 0 mm 4 mps 724 mmHg 34%
    01:00 +26°C° 0 mm 3 mps 724 mmHg 34%
    02:00 +25°C° 0 mm 3 mps 724 mmHg 35%
    03:00 +24°C° 0 mm 2 mps 724 mmHg 37%
    04:00 +24°C° 0 mm 2 mps 724 mmHg 39%
    05:00 +24°C° 0 mm 2 mps 724 mmHg 41%
    06:00 +24°C° 0 mm 1 mps 724 mmHg 43%
    07:00 +26°C° 0 mm 2 mps 725 mmHg 40%
    08:00 +29°C° 0 mm 3 mps 725 mmHg 36%
    09:00 +32°C° 0 mm 4 mps 725 mmHg 32%
    10:00 +34°C° 0 mm 5 mps 725 mmHg 29%
    11:00 +36°C° 0 mm 7 mps 724 mmHg 26%
    12:00 +38°C° 0 mm 9 mps 724 mmHg 24%
    13:00 +39°C° 0 mm 9 mps 724 mmHg 24%
    14:00 +39°C° 0 mm 9 mps 723 mmHg 24%
    15:00 +39°C° 0 mm 9 mps 723 mmHg 24%
    16:00 +39°C° 0 mm 8 mps 723 mmHg 25%
    17:00 +38°C° 0 mm 8 mps 723 mmHg 26%
    18:00 +36°C° 0 mm 7 mps 723 mmHg 27%
    19:00 +34°C° 0 mm 7 mps 723 mmHg 28%
    20:00 +33°C° 0 mm 6 mps 724 mmHg 30%
    21:00 +30°C° 0 mm 6 mps 724 mmHg 32%
    22:00 +29°C° 0 mm 5 mps 724 mmHg 32%
    23:00 +28°C° 0 mm 5 mps 724 mmHg 33%

    Tomorrow, 24 August, Saturday

    Time Temperature Precipitation Wind Pressure Humidity
    00:00 +28°C° 0 mm 4 mps 724 mmHg 34%
    01:00 +27°C° 0 mm 3 mps 724 mmHg 36%
    02:00 +26°C° 0 mm 3 mps 724 mmHg 38%
    03:00 +26°C° 0 mm 2 mps 724 mmHg 40%
    04:00 +25°C° 0 mm 2 mps 724 mmHg 42%
    05:00 +25°C° 0 mm 2 mps 724 mmHg 45%
    06:00 +25°C° 0 mm 1 mps 724 mmHg 48%
    07:00 +27°C° 0 mm 2 mps 724 mmHg 44%
    08:00 +29°C° 0 mm 2 mps 725 mmHg 40%
    09:00 +31°C° 0 mm 2 mps 725 mmHg 37%
    10:00 +34°C° 0 mm 3 mps 725 mmHg 33%
    11:00 +35°C° 0 mm 4 mps 724 mmHg 29%
    12:00 +37°C° 0 mm 5 mps 724 mmHg 25%
    13:00 +39°C° 0 mm 5 mps 724 mmHg 25%
    14:00 +39°C° 0 mm 6 mps 723 mmHg 24%
    15:00 +40°C° 0 mm 6 mps 723 mmHg 23%
    16:00 +39°C° 0 mm 6 mps 723 mmHg 24%
    17:00 +37°C° 0 mm 5 mps 723 mmHg 26%
    18:00 +36°C° 0 mm 5 mps 723 mmHg 27%
    19:00 +35°C° 0.1 mm 5 mps 724 mmHg 29%
    20:00 +33°C° 0.1 mm 5 mps 725 mmHg 31%
    21:00 +30°C° 0.1 mm 5 mps 725 mmHg 33%
    22:00 +29°C° 0.1 mm 4 mps 725 mmHg 37%
    23:00 +28°C° 0.1 mm 3 mps 725 mmHg 40%

    Day after tomorrow, 25 August, Sunday

    Time Temperature Precipitation Wind Pressure Humidity
    00:00 +27°C° 0.1 mm 2 mps 725 mmHg 44%
    01:00 +27°C° 0 mm 2 mps 725 mmHg 45%
    02:00 +26°C° 0 mm 2 mps 725 mmHg 46%
    03:00 +25°C° 0 mm 1 mps 724 mmHg 47%
    04:00 +25°C° 0 mm 2 mps 724 mmHg 47%
    05:00 +25°C° 0 mm 2 mps 724 mmHg 46%
    06:00 +25°C° 0 mm 2 mps 724 mmHg 45%
    07:00 +27°C° 0 mm 2 mps 724 mmHg 42%
    08:00 +29°C° 0 mm 3 mps 724 mmHg 39%
    09:00 +31°C° 0 mm 3 mps 724 mmHg 35%
    10:00 +33°C° 0 mm 3 mps 724 mmHg 32%
    11:00 +35°C° 0 mm 2 mps 724 mmHg 29%
    12:00 +36°C° 0 mm 2 mps 724 mmHg 27%
    13:00 +36°C° 0.1 mm 2 mps 723 mmHg 25%
    14:00 +37°C° 0.1 mm 3 mps 723 mmHg 24%
    15:00 +38°C° 0.1 mm 3 mps 723 mmHg 23%
    16:00 +36°C° 0.1 mm 2 mps 723 mmHg 26%
    17:00 +35°C° 0.1 mm 2 mps 723 mmHg 29%
    18:00 +33°C° 0.1 mm 1 mps 723 mmHg 32%
    19:00 +31°C° 0 mm 2 mps 723 mmHg 34%
    20:00 +30°C° 0 mm 3 mps 724 mmHg 36%
    21:00 +28°C° 0 mm 4 mps 724 mmHg 37%
    22:00 +28°C° 0 mm 4 mps 724 mmHg 38%
    23:00 +27°C° 0 mm 3 mps 725 mmHg 39%

    26 August, Monday

    Time Temperature Precipitation Wind Pressure Humidity
    00:00 +27°C° 0 mm 3 mps 725 mmHg 40%
    01:00 +26°C° 0 mm 2 mps 725 mmHg 42%
    02:00 +25°C° 0 mm 2 mps 725 mmHg 45%
    03:00 +24°C° 0 mm 1 mps 725 mmHg 48%
    04:00 +24°C° 0.1 mm 1 mps 725 mmHg 50%
    05:00 +24°C° 0.1 mm 1 mps 725 mmHg 52%
    06:00 +24°C° 0.1 mm 1 mps 725 mmHg 55%
    07:00 +25°C° 0 mm 1 mps 725 mmHg 50%
    08:00 +27°C° 0 mm 2 mps 725 mmHg 45%
    09:00 +28°C° 0 mm 2 mps 726 mmHg 40%
    10:00 +30°C° 0.1 mm 2 mps 725 mmHg 36%
    11:00 +31°C° 0.1 mm 3 mps 725 mmHg 31%
    12:00 +34°C° 0.1 mm 3 mps 725 mmHg 27%
    13:00 +34°C° 0.5 mm 3 mps 725 mmHg 27%
    14:00 +34°C° 0.5 mm 4 mps 725 mmHg 26%
    15:00 +35°C° 0.5 mm 4 mps 724 mmHg 26%
    16:00 +34°C° 0.2 mm 4 mps 725 mmHg 29%
    17:00 +33°C° 0.2 mm 3 mps 725 mmHg 32%
    18:00 +31°C° 0.2 mm 3 mps 725 mmHg 36%
    19:00 +30°C° 0.1 mm 4 mps 726 mmHg 40%
    20:00 +29°C° 0.1 mm 4 mps 727 mmHg 44%
    21:00 +27°C° 0.1 mm 5 mps 727 mmHg 48%
    22:00 +27°C° 0.2 mm 4 mps 727 mmHg 51%
    23:00 +27°C° 0.2 mm 4 mps 727 mmHg 54%

    27 August, Tuesday

    Time Temperature Precipitation Wind Pressure Humidity
    00:00 +26°C° 0.2 mm 3 mps 727 mmHg 57%
    01:00 +26°C° 0.2 mm 3 mps 727 mmHg 59%
    02:00 +25°C° 0.2 mm 4 mps 727 mmHg 61%
    03:00 +23°C° 0.2 mm 4 mps 727 mmHg 63%
    04:00 +23°C° 0.1 mm 4 mps 727 mmHg 66%
    05:00 +22°C° 0.1 mm 3 mps 727 mmHg 70%
    06:00 +22°C° 0.1 mm 3 mps 727 mmHg 73%
    07:00 +23°C° 0 mm 4 mps 727 mmHg 67%
    08:00 +26°C° 0 mm 4 mps 727 mmHg 61%
    09:00 +27°C° 0 mm 5 mps 727 mmHg 55%
    10:00 +28°C° 0.1 mm 5 mps 726 mmHg 52%
    11:00 +29°C° 0.1 mm 4 mps 726 mmHg 48%
    12:00 +30°C° 0.1 mm 4 mps 725 mmHg 44%
    13:00 +32°C° 0.2 mm 4 mps 725 mmHg 43%
    14:00 +32°C° 0.2 mm 4 mps 724 mmHg 41%
    15:00 +33°C° 0.2 mm 4 mps 723 mmHg 40%
    16:00 +31°C° 0.2 mm 3 mps 723 mmHg 42%
    17:00 +30°C° 0.2 mm 3 mps 723 mmHg 44%
    18:00 +29°C° 0.2 mm 3 mps 723 mmHg 46%
    19:00 +28°C° 0.3 mm 2 mps 724 mmHg 51%
    20:00 +27°C° 0.3 mm 2 mps 724 mmHg 56%
    21:00 +25°C° 0.3 mm 1 mps 724 mmHg 61%
    22:00 +25°C° 0.1 mm 1 mps 724 mmHg 63%
    23:00 +24°C° 0.1 mm 1 mps 724 mmHg 65%

    28 August, Wednesday

    Time Temperature Precipitation Wind Pressure Humidity
    00:00 +24°C° 0.1 mm 1 mps 724 mmHg 67%
    01:00 +23°C° 0.2 mm 1 mps 723 mmHg 70%
    02:00 +23°C° 0.2 mm 1 mps 723 mmHg 73%
    03:00 +23°C° 0.2 mm 1 mps 723 mmHg 75%
    04:00 +23°C° 0 mm 1 mps 723 mmHg 75%
    05:00 +23°C° 0 mm 1 mps 723 mmHg 75%
    06:00 +22°C° 0 mm 1 mps 723 mmHg 76%
    07:00 +24°C° 0 mm 1 mps 723 mmHg 70%
    08:00 +26°C° 0 mm 2 mps 723 mmHg 63%
    09:00 +27°C° 0 mm 2 mps 723 mmHg 57%
    10:00 +28°C° 0.1 mm 2 mps 723 mmHg 53%
    11:00 +29°C° 0.1 mm 2 mps 723 mmHg 49%
    12:00 +31°C° 0.1 mm 2 mps 723 mmHg 45%
    13:00 +31°C° 0.1 mm 2 mps 723 mmHg 43%
    14:00 +32°C° 0.1 mm 2 mps 722 mmHg 42%
    15:00 +32°C° 0.1 mm 2 mps 722 mmHg 40%
    16:00 +32°C° 0.2 mm 2 mps 722 mmHg 43%
    17:00 +31°C° 0.2 mm 2 mps 722 mmHg 46%
    18:00 +30°C° 0.2 mm 2 mps 723 mmHg 49%
    19:00 +29°C° 0.1 mm 3 mps 723 mmHg 52%
    20:00 +28°C° 0.1 mm 4 mps 724 mmHg 54%
    21:00 +27°C° 0.1 mm 5 mps 724 mmHg 56%
    22:00 +26°C° 0 mm 5 mps 725 mmHg 58%
    23:00 +25°C° 0 mm 5 mps 725 mmHg 60%
    Show more